User: anonymous   Login
Location: Radford
(37.1320°N, 80.5770°W)
Time: 14:12:06
(UTC-04:00)
Language:

Okean 1-7 - Orbit

View from above orbital plane
View from above orbital plane
View from above satellite
View from above satellite

Ground track
Ground track

The orbit data is extracted from the following two-line orbital elements,

1 23317U 94066A   15210.49281091  .00000554  00000-0  59298-4 0  9995
2 23317 082.5360 045.6886 0019890 185.3003 236.3429 14.86755131123596
Epoch (UTC): 29 July 2015 11:49:38
Eccentricity: 0.0019890
inclination: 82.5360°
perigee height: 594 km
apogee height: 622 km
right ascension of ascending node: 45.6886°
argument of perigee: 185.3003°
revolutions per day: 14.86755131
mean anomaly at epoch: 236.3429°
orbit number at epoch: 12359

The dashed part of the orbit path shows where the satellite is in the earth's shadow,  

DLR